Location: Battlefield Observatory
(36.7579°N, 76.2613°W)
Time: 00:35:46
(UTC-05:00)

Envisat - Visible Passes

Search period start: 19 February 2018 00:00
Search period end: 01 March 2018 00:00
Orbit: 764 x 766 km, 98.2° (Epoch: 18 February)

Date Brightness Start Highest point End Pass type
(mag) Time Alt. Az. Time Alt. Az. Time Alt. Az.
19 Feb 4.3 18:29:35 10° ESE 18:33:04 19° ENE 18:36:34 10° NNE visible
19 Feb 3.9 20:06:51 10° S 20:11:42 46° W 20:16:35 10° NNW visible
20 Feb 2.8 19:29:55 10° SSE 19:34:58 76° ENE 19:40:03 10° N visible
20 Feb 6.0 21:13:47 10° W 21:14:29 10° W 21:15:10 10° W visible
21 Feb 3.6 18:53:56 10° SE 18:58:25 33° ENE 19:02:55 10° N visible
21 Feb 5.0 20:33:16 10° SSW 20:37:25 25° W 20:41:36 10° NW visible
22 Feb 4.6 18:19:16 10° E 18:22:04 15° ENE 18:24:53 10° NNE visible
22 Feb 3.5 19:55:33 10° S 20:00:33 59° W 20:05:34 10° NNW visible
23 Feb 3.0 19:18:54 10° SSE 19:23:52 59° ENE 19:28:51 10° N visible
23 Feb 5.8 21:00:41 10° WSW 21:03:13 14° W 21:05:46 10° WNW visible
24 Feb 3.9 18:43:14 10° ESE 18:47:22 26° ENE 18:51:32 10° NNE visible
24 Feb 4.6 20:21:42 10° SSW 20:26:13 32° W 20:30:46 10° NNW visible
25 Feb 3.1 19:44:21 10° S 19:49:24 77° WSW 19:54:30 10° NNW visible
26 Feb 3.2 19:07:57 10° SE 19:12:46 46° ENE 19:17:37 10° N visible
26 Feb 5.5 20:48:35 10° SW 20:51:59 18° W 20:55:23 10° NW visible
27 Feb 4.2 18:32:38 10° ESE 18:36:20 21° ENE 18:40:03 10° NNE visible
27 Feb 4.1 20:10:16 10° S 20:15:02 41° W 20:19:50 10° NNW visible
28 Feb 2.9 19:33:12 10° SSE 19:38:16 84° ENE 19:43:22 10° N visible
